www.pogodaiklimat.ru

Погода и климат >> Архив погоды >> Россия >> Приморский край >> Тимирязевский


ПОГОДА в Тимирязевском

  • Прогноз погоды в Тимирязевском
  • Монитор погоды в Тимирязевском
  • Климат города

АРХИВ ПОГОДЫ в Тимирязевском

Время (UTC), дата Ветер
(напр.,м/с)
 
Видим.   Явления Облачность Т
(С)
Тd
(С)
f
(%)
Тe
(С)
Тes
(С)
Комфортность P
(гПа)
Po
(гПа)
Тmin
(С)
Tmax
(С)
R
(мм)
R24
(мм)
S
(см)
03 6.11 Ю 1 20 км 3/0
[Ci fib]
+3.2 -6.1 50 +2 +8 1030.2 1025.8
06 6.11 С 1 20 км ясно +5.0 -10.8 31 +5 +7 1028.7 1024.3
09 6.11 В 1 20 км ясно +1.7 -11.7 36 +1 +1 1028.7 1024.3 +5.1
12 6.11 В 1 20 км ясно -3.8 -8.1 72 -6 -6 1030.5 1025.9
15 6.11 Ю 1 20 км ясно -3.7 -8.9 67 -6 -6 1031.5 1026.9
18 6.11 Ю 3 20 км ясно -5.0 -9.0 73 -10 -10 1032.3 1027.7
21 6.11 штиль 0 20 км ясно -7.5 -8.9 90 -8 -8 1032.5 1027.8 -7.9
00 7.11 штиль 0 20 км 10/0
[Ci fib]
-2.3 -6.9 71 -3 -2 1033.8 1029.2
03 7.11 З 1 20 км 10/0
[Ci fib]
+3.7 -4.9 53 +3 +7 1032.2 1027.8
06 7.11 З 1 20 км 10/0
[Ci fib]
+6.7 -7.6 35 +7 +8 1029.7 1025.3
09 7.11 Ю 1 20 км 10/0
[Ci fib]
+0.8 -7.9 52 -0 -0 1029.2 1024.7 +7.5
12 7.11 Ю 1 20 км ясно 0.0 -8.1 54 -1 -1 1029.1 1024.6
15 7.11 Ю 2 20 км ясно -0.2 -6.8 61 -3 -3 1028.6 1024.1
18 7.11 Ю 1 20 км ясно -2.3 -5.8 77 -4 -4 1028.0 1023.4
21 7.11 З 1 20 км 10/8 1000 м
[Sc Ci fib]
-2.6 -4.1 89 -5 -5 1027.5 1023.0 -4.0
00 8.11 штиль 0 10 км 10/10 1000 м
[Sc]
+0.9 -2.6 77 0 0 1027.3 1022.8
03 8.11 Ю 3 20 км 10/10 1000 м
[Sc]
+8.3 +1.1 60 +6 +6 1025.9 1021.6
06 8.11 Ю 3 20 км слабый ливневой дождь 10/8 600 м
[Cb cap Ci fib]
+8.6 +2.1 64 +6 +7 1024.1 1019.8
09 8.11 ЮВ 2 10 км слабый ливневой дождь 10/10 600 м
[Cb cap]
+6.2 +4.1 86 +4 +4 1023.6 1019.2 +9.2 3
12 8.11 СВ 1 10 км слабый ливневой дождь 10/10 600 м
[Cb cap]
+4.5 +4.1 97 +3 +3 1021.8 1017.4
15 8.11 СВ 2 10 км слабый дождь {ливн. осадки} 10/3 600 м
[Frnb As op]
+3.6 +3.4 99 0 0 1018.8 1014.4
18 8.11 СВ 6 4000 м дождь {ливн. осадки} 10/0
[As op]
+3.3 +2.4 94 -3 -3 1014.0 1009.6
21 8.11 С 5
{11}
4000 м дождь 10/10 300 м
[Frnb Ns]
+2.6 +2.3 98 -3 -3 1006.0 1001.6 +2.6 13
00 9.11 С 5
{11}
10 км слабый ливневой дождь 10/10 300 м
[Cb cap]
+4.6 +4.2 97 -0 -0 999.7 995.4
03 9.11 З 7-12
{12}
4000 м ливневой дождь 10/10 300 м
[Cb cap]
+3.8 +3.7 99 -2 -2 998.7 994.3
06 9.11 ЮЗ 5
{12}
20 км слабый ливневой дождь 10/10 300 м
[Cb cap]
+4.8 +3.3 90 0 0 1003.6 999.2
09 9.11 Ю 3 20 км {ливн. осадки} 10/10 600 м
[Cb cap]
+5.2 +1.6 78 +2 +2 1008.1 1003.8 +5.4 19
12 9.11 Ю 3 20 км {ливн. осадки} 10/10 600 м
[Cb cap]
+5.1 +1.6 78 +2 +2 1011.0 1006.7
15 9.11 Ю 2 20 км 10/10 1000 м
[Sc diur, vesp]
+5.3 +1.4 76 +3 +3 1013.0 1008.6
18 9.11 Ю 3 20 км 8/8 1000 м
[Sc diur, vesp]
+4.0 +0.5 78 0 0 1014.2 1009.8
21 9.11 Ю 2 20 км 8/8 1000 м
[Sc diur, vesp]
+3.4 -0.9 73 +1 +1 1015.6 1011.2 +2.8
00 10.11 Ю 3 20 км 10/8 1000 м
[Sc diur, vesp Ci fib]
+5.2 -0.8 65 +2 +2 1017.6 1013.2
03 10.11 З 4
{11}
20 км 8/8 1000 м
[Sc diur, vesp]
+7.7 +0.1 59 +5 +5 1018.5 1014.2
06 10.11 З 4
{11}
20 км 10/5 1000 м
[Sc diur, vesp Ci fib]
+8.6 -0.8 52 +6 +6 1018.8 1014.5
09 10.11 СЗ 2 20 км 8/3 1000 м
[Sc diur, vesp Ci fib]
+3.6 -1.4 70 +1 +1 1021.0 1016.6 +9.1
12 10.11 СЗ 3 20 км ясно +2.3 -3.3 66 -2 -2 1023.0 1018.6
15 10.11 Ю 2 20 км ясно +1.1 -3.9 69 -2 -2 1023.6 1019.1
18 10.11 ЮЗ 1 20 км ясно +0.4 -4.6 69 -1 -1 1024.5 1020.1
21 10.11 З 1 20 км ясно -2.4 -4.3 87 -5 -5 1024.8 1020.3 -2.5
00 11.11 штиль 0 10 км 10/0
[Ci fib]
+1.5 -2.2 76 +1 +2 1025.1 1020.6 -3.8
03 11.11 СЗ 3 20 км 10/0
[Ci fib]
+5.2 -3.6 53 +2 +5 1024.2 1019.8
06 11.11 СВ 2 20 км 10/0
[Ci fib]
+6.2 -4.3 47 +5 +6 1022.8 1018.4
09 11.11 СВ 1 20 км 10/8 600 м
[Sc Ci fib]
+3.7 -2.9 62 +3 +3 1022.8 1018.4 +6.2
12 11.11 СВ 1 20 км 10/10 600 м
[Sc]
+2.2 -1.2 78 +1 +1 1022.3 1017.9
15 11.11 СЗ 1 20 км 10/4 600 м
[Sc Ci fib]
-1.5 -3.2 88 -4 -4 1021.9 1017.4
18 11.11 З 1 20 км 10/6 600 м
[Sc Ci fib]
-1.8 -2.8 93 -4 -4 1021.9 1017.4
21 11.11 штиль 0 20 км 10/0
[Ci fib]
-3.3 -3.6 98 -5 -5 1021.6 1017.1 -3.4
00 12.11 СВ 1 10 км ясно -0.2 -1.9 88 -2 -1 1022.3 1017.8 -4.1
03 12.11 СВ 1 20 км 3/3 1000 м
[Cu hum]
+4.6 -3.5 56 +4 +8 1021.1 1016.7
06 12.11 С 2 20 км 3/3 600 м
[Sc diur, vesp]
+5.5 -4.6 48 +4 +5 1020.1 1015.8
09 12.11 СВ 3 20 км ясно +0.3 -3.7 74 -4 -4 1021.9 1017.4 +5.7
12 12.11 С 1 20 км ясно -2.1 -4.2 86 -4 -4 1023.3 1018.8
15 12.11 СВ 1 20 км 10/10 600 м
[Sc]
-3.5 -4.5 93 -6 -6 1023.6 1024.0
18 12.11 С 1 20 км 10/10 600 м
[Sc]
-1.6 -3.3 88 -4 -4 1023.8 1019.3
21 12.11 СЗ 1 20 км 10/10 600 м
[Sc]
-0.9 -2.8 87 -3 -3 1023.8 1019.3 -3.5
00 13.11 З 1 20 км 10/10 600 м
[Sc]
-0.1 -2.6 83 -2 -2 1025.1 1020.6

 

Местоположение метеостанции Тимирязевский (Приморский край, Россия): широта 43.88 долгота 131.90 высота над уровнем моря 36 м.

В архиве по умолчанию представлена погода в Тимирязевском за последнюю неделю. Архивные данные за месяц целиком и за предыдущие месяцы, начиная с января 2011 года, Вы можете получить, выбрав интересующий диапазон дат из раскрывающегося списка и нажав кнопку "Ввод!".


*Определитесь, кто Вы:
робот инопланетянин человек

Внимание! Время в таблицах - всемирное. Для получения местного времени необходимо прибавить поправку, которая в Тимирязевском равна 10 ч.

Смотрите также архив погоды в соседних городах и на ближайших метеорологических станциях:

Погода в Полтавке (Приморский край, Россия) (51 км)
Погода в Хороль (Приморский край, Россия) (62 км)
Погода в Многоудобном (Приморский край, Россия) (65 км)
Погода в Пограничном (Приморский край, Россия) (75 км)
Погода в Suifenhe (Китай) (82 км)
Погода в Владивостоке (Приморский край, Россия) (85 км)
Погода в Барабаше (Приморский край, Россия) (86 км)
Погода в Анучино (Приморский край, Россия) (89 км)
Погода на Мысе Назимова (Приморский край, Россия) (92 км)
Погода в Астраханке (Приморский край, Россия) (94 км)

Пояснения к столбцам:

Ветер - указаны скорость ветра в м/с - средняя за 10 мин, порывы в срок и между сроками (в фигурных скобках) и направление, откуда дует ветер: С - северный, СВ - северо-восточный, В - восточный, ЮВ - юго-восточный, Ю - южный, ЮЗ - юго-западный, З - западный, СЗ - северо-западный.
Видимость - горизонтальная дальность видимости в метрах или километрах. При видимости от 1 до 10 км при отсутствии осадков обычно наблюдается дымка, при ухудшении видимости до 1 км и менее - туман. В сухую погоду видимость может ухудшаться дымом, пылью или мглою.
Явления - указаны атмосферные явления, наблюдавшиеся в срок или в последний час перед сроком; фигурными скобками обозначены явления, наблюдавшиеся между сроками (за 1-3 часа до срока); квадратными скобками обозначены град или гололедные отложения с указанием их диаметра в мм.
Облачность - указаны через наклонную черту общая и нижняя облачность в баллах и высота нижней границы облаков в метрах; квадратными скобками обозначены формы облаков: Ci - перистые, Cs - перисто-слоистые, Cc - перисто-кучевые, Ac - высококучевые, As - высокослоистые, Sc - слоисто-кучевые, Ns - слоисто-дождевые, Cu - кучевые, Cb - кучево-дождевые. Подробнее классификацию облаков см. в Атласе облаков (PDF).
T - Температура воздуха - температура, измеренная на высоте 2 м над землей.
Td - Температура точки росы - температура, при понижении до которой содержащийся в воздухе водяной пар достигнет насыщения.
f - Относительная влажность воздуха - влажноcть воздуха, измеренная на высоте 2 м над землей.
Te - Эффективная температура - температура, которую ощущает одетый по сезону человек в тени. Характеристика душности погоды. При расчете учитывается влияние влажности воздуха и скорости ветра на теплоощущения человека.
Tes - Эффективная температура на солнце - температура, которую ощущает человек, с поправкой на солнечный нагрев. Характеристика знойности погоды. Зависит от высоты солнца над горизонтом, облачности и скорости ветра. Ночью, в пасмурную погоду, а также при ветре 12 м/с и более поправка равна нулю.
P - Атмосферное давление - приведенное к уровню моря атмосферное давление.
Po - Атмосферное давление - измеренное на уровне метеостанции атмосферное давление.
Tmin - Минимальная температура - минимум температуры воздуха на высоте 2 м над землей.
Tmax - Максимальная температура - максимум температуры воздуха на высоте 2 м над землей.
R - Количество осадков - Количество выпавших осадков за период времени, мм. При наведении курсора мыши на число - период времени, за который выпало указанное количество осадков.
R24 - Количество осадков - Количество выпавших осадков за 24 часа, мм.
S - Снежный покров - Высота снежного покрова, см. При наведении курсора мыши на число - состояние снежного покрова и степень покрытия местности в баллах.